Location: Caltech
(34.1382°N, 118.1253°W)
Time: 03:09:05
(UTC-07:00)

OPAL - Visible Passes

Search period start: 29 September 2016 00:00
Search period end: 09 October 2016 00:00
Orbit: 744 x 795 km, 100.2° (Epoch: 28 September)

Date Brightness Start Highest point End Pass type
(mag) Time Alt. Az. Time Alt. Az. Time Alt. Az.
29 Sep 10.4 03:14:08 10° NNE 03:14:25 12° NNE 03:14:25 12° NNE visible
30 Sep 9.8 04:17:55 10° N 04:18:41 14° N 04:18:41 14° N visible
01 Oct 10.1 03:42:04 10° N 03:42:40 13° N 03:42:40 13° N visible
02 Oct 9.9 04:46:46 10° NNW 04:46:57 11° NNW 04:46:57 11° NNW visible
03 Oct 9.9 04:10:20 10° N 04:10:56 13° N 04:10:56 13° N visible
04 Oct 10.3 03:34:38 10° NNE 03:34:55 12° NNE 03:34:55 12° NNE visible
05 Oct 9.9 04:38:58 10° NNW 04:39:11 11° NNW 04:39:11 11° NNW visible
06 Oct 10.1 04:02:46 10° N 04:03:10 12° N 04:03:10 12° N visible
08 Oct 10.0 04:31:15 10° N 04:31:25 11° N 04:31:25 11° N visible
